DLH3PF LIRF-EDDF

Flight info

Callsign DLH3PF
Flight time 1h 36m
Altitude 38000
Route SOVAN DCT AMTEL DCT SUMIR DCT NAXAV DCT UNIMI L12 MOGTI Q163 OLASO/N0421F320 Q163 HAFUN/N0370F240 Q163 ETASA T163 SPESA SPESA5B
Aircraft A320/M-SDE2E3FGIJ1LORWXYZ/HB1

Departure

Time 2026-04-16 11:54
Airport Rome–Fiumicino Leonardo da Vinci International Airport (LIRF)

Arrival

Time 2026-04-16 13:30
Airport Frankfurt Main Airport (EDDF)
Time Latitude Longitude Altitude Speed Heading
2026-04-16 11:24 41.79824 12.25554 21 ft 0 kts 140°
2026-04-16 11:44 41.79839 12.25535 18 ft 3 kts 122°
2026-04-16 11:44 41.79847 12.25507 21 ft 3 kts 83°
2026-04-16 11:45 41.79839 12.25480 21 ft 3 kts 42°
2026-04-16 11:45 41.79825 12.25467 20 ft 1 kts 25°
2026-04-16 11:45 41.79822 12.25465 20 ft 0 kts 25°
2026-04-16 11:47 41.79830 12.25470 20 ft 4 kts 25°
2026-04-16 11:48 41.79853 12.25485 19 ft 3 kts 25°
2026-04-16 11:48 41.79872 12.25496 19 ft 3 kts 25°
2026-04-16 11:48 41.79911 12.25521 17 ft 12 kts 25°
2026-04-16 11:48 41.79977 12.25565 19 ft 6 kts 31°
2026-04-16 11:49 41.79998 12.25605 17 ft 7 kts 84°
2026-04-16 11:49 41.79961 12.25714 18 ft 12 kts 117°
2026-04-16 11:49 41.79928 12.25810 18 ft 11 kts 105°
2026-04-16 11:49 41.79966 12.25883 18 ft 11 kts 24°
2026-04-16 11:50 41.80034 12.25923 19 ft 10 kts 25°
2026-04-16 11:50 41.80103 12.25966 16 ft 14 kts 25°
2026-04-16 11:50 41.80211 12.26034 16 ft 19 kts 25°
2026-04-16 11:50 41.80334 12.26110 13 ft 18 kts 25°
2026-04-16 11:51 41.80440 12.26169 13 ft 17 kts 15°
2026-04-16 11:51 41.80534 12.26258 13 ft 18 kts 71°
2026-04-16 11:51 41.80571 12.26402 15 ft 16 kts 70°
2026-04-16 11:51 41.80609 12.26541 15 ft 16 kts 70°
2026-04-16 11:52 41.80650 12.26688 14 ft 17 kts 70°
2026-04-16 11:52 41.80691 12.26841 12 ft 18 kts 70°
2026-04-16 11:52 41.80739 12.27008 10 ft 19 kts 62°
2026-04-16 11:52 41.80856 12.27022 8 ft 19 kts 340°
2026-04-16 11:53 41.80958 12.26935 10 ft 17 kts 282°
2026-04-16 11:53 41.80916 12.26759 9 ft 31 kts 245°
2026-04-16 11:53 41.80753 12.26181 19 ft 98 kts 250°
2026-04-16 11:53 41.80449 12.25081 14 ft 151 kts 250°
2026-04-16 11:54 41.80076 12.23666 468 ft 162 kts 252°
2026-04-16 11:54 41.79679 12.22255 1237 ft 162 kts 249°
2026-04-16 11:54 41.79112 12.20885 1672 ft 180 kts 221°
2026-04-16 11:54 41.77995 12.19924 1971 ft 203 kts 212°
2026-04-16 11:55 41.76737 12.18873 2298 ft 222 kts 213°
2026-04-16 11:55 41.75377 12.17697 2877 ft 240 kts 214°
2026-04-16 11:55 41.73974 12.16469 3652 ft 243 kts 214°
2026-04-16 11:55 41.72546 12.15217 4407 ft 248 kts 214°
2026-04-16 11:56 41.71102 12.13939 5194 ft 250 kts 216°
2026-04-16 11:56 41.69996 12.12158 5930 ft 254 kts 249°
2026-04-16 11:56 41.69822 12.09767 6429 ft 271 kts 284°
2026-04-16 11:56 41.70716 12.07545 7109 ft 278 kts 316°
2026-04-16 11:57 41.72392 12.06288 7857 ft 281 kts 350°
2026-04-16 11:57 41.74343 12.06094 8673 ft 283 kts
2026-04-16 11:57 41.76327 12.06076 9530 ft 287 kts
2026-04-16 11:57 41.78339 12.06099 10331 ft 291 kts
2026-04-16 11:58 41.80431 12.06131 10710 ft 312 kts
2026-04-16 11:58 41.82682 12.06158 10980 ft 334 kts
2026-04-16 11:58 41.85040 12.06170 11572 ft 343 kts
2026-04-16 11:58 41.87437 12.06170 12311 ft 346 kts
2026-04-16 11:59 41.89856 12.06163 13056 ft 349 kts
2026-04-16 11:59 41.92299 12.06154 13790 ft 352 kts
2026-04-16 11:59 41.94764 12.06146 14469 ft 356 kts
2026-04-16 11:59 41.97248 12.06084 15125 ft 359 kts 359°
2026-04-16 12:00 41.99754 12.05892 15745 ft 363 kts 358°
2026-04-16 12:00 42.02278 12.05625 16362 ft 366 kts 356°
2026-04-16 12:00 42.04826 12.05328 16990 ft 369 kts 356°
2026-04-16 12:00 42.07391 12.05029 17607 ft 371 kts 356°
2026-04-16 12:01 42.09974 12.04741 18217 ft 374 kts 356°
2026-04-16 12:01 42.12579 12.04465 18770 ft 377 kts 356°
2026-04-16 12:01 42.15206 12.04201 19271 ft 380 kts 356°
2026-04-16 12:02 42.20504 12.03702 20217 ft 384 kts 357°
2026-04-16 12:02 42.23182 12.03470 20701 ft 388 kts 357°
2026-04-16 12:02 42.25889 12.03237 21190 ft 391 kts 357°
2026-04-16 12:02 42.28604 12.02998 21692 ft 393 kts 357°
2026-04-16 12:03 42.31348 12.02757 22162 ft 396 kts 357°
2026-04-16 12:03 42.34077 12.02522 22615 ft 399 kts 357°
2026-04-16 12:03 42.36859 12.02277 23085 ft 402 kts 357°
2026-04-16 12:03 42.39659 12.02028 23531 ft 405 kts 357°
2026-04-16 12:04 42.42486 12.01788 23914 ft 408 kts 357°
2026-04-16 12:04 42.45324 12.01546 24316 ft 410 kts 357°
2026-04-16 12:04 42.48175 12.01298 24737 ft 411 kts 357°
2026-04-16 12:04 42.51032 12.01048 25143 ft 412 kts 357°
2026-04-16 12:05 42.53903 12.00790 25558 ft 413 kts 357°
2026-04-16 12:05 42.56771 12.00523 25971 ft 414 kts 357°
2026-04-16 12:05 42.59649 12.00245 26380 ft 415 kts 357°
2026-04-16 12:05 42.62532 11.99967 26778 ft 416 kts 357°
2026-04-16 12:06 42.65420 11.99694 27165 ft 417 kts 357°
2026-04-16 12:06 42.68321 11.99415 27546 ft 418 kts 357°
2026-04-16 12:06 42.71229 11.99129 27941 ft 420 kts 357°
2026-04-16 12:06 42.74146 11.98835 28340 ft 421 kts 357°
2026-04-16 12:07 42.77064 11.98533 28723 ft 422 kts 357°
2026-04-16 12:07 42.79994 11.98225 29096 ft 423 kts 357°
2026-04-16 12:07 42.82934 11.97919 29445 ft 424 kts 357°
2026-04-16 12:07 42.85876 11.97620 29780 ft 425 kts 357°
2026-04-16 12:08 42.88832 11.97317 30123 ft 426 kts 357°
2026-04-16 12:08 42.91790 11.97011 30420 ft 427 kts 357°
2026-04-16 12:08 42.94751 11.96700 30789 ft 426 kts 357°
2026-04-16 12:08 42.97704 11.96385 31139 ft 425 kts 357°
2026-04-16 12:09 43.00649 11.96066 31467 ft 425 kts 357°
2026-04-16 12:09 43.03595 11.95753 31751 ft 426 kts 357°
2026-04-16 12:09 43.06553 11.95447 32050 ft 426 kts 357°
2026-04-16 12:09 43.09509 11.95140 32366 ft 426 kts 357°
2026-04-16 12:10 43.12468 11.94830 32689 ft 426 kts 357°
2026-04-16 12:10 43.15423 11.94516 33019 ft 426 kts 357°
2026-04-16 12:10 43.18377 11.94201 33357 ft 425 kts 357°
2026-04-16 12:10 43.21324 11.93885 33681 ft 425 kts 357°
2026-04-16 12:11 43.24277 11.93586 33968 ft 426 kts 357°
2026-04-16 12:11 43.27233 11.93297 34248 ft 426 kts 357°
2026-04-16 12:11 43.30195 11.93009 34524 ft 426 kts 357°
2026-04-16 12:11 43.33152 11.92721 34799 ft 426 kts 357°
2026-04-16 12:12 43.36105 11.92436 35069 ft 425 kts 357°
2026-04-16 12:12 43.39055 11.92152 35322 ft 425 kts 357°
2026-04-16 12:12 43.42007 11.91872 35579 ft 425 kts 357°
2026-04-16 12:12 43.44960 11.91610 35802 ft 425 kts 357°
2026-04-16 12:13 43.47911 11.91352 36045 ft 425 kts 357°
2026-04-16 12:13 43.50865 11.91096 36275 ft 425 kts 357°
2026-04-16 12:13 43.53816 11.90842 36505 ft 425 kts 357°
2026-04-16 12:13 43.56758 11.90588 36738 ft 424 kts 357°
2026-04-16 12:14 43.59703 11.90335 36973 ft 424 kts 357°
2026-04-16 12:14 43.62608 11.90090 37162 ft 424 kts 357°
2026-04-16 12:14 43.65553 11.89856 37367 ft 424 kts 357°
2026-04-16 12:14 43.68493 11.89623 37584 ft 423 kts 357°
2026-04-16 12:15 43.71433 11.89393 37762 ft 424 kts 357°
2026-04-16 12:15 43.74376 11.89163 37980 ft 423 kts 357°
2026-04-16 12:15 43.77353 11.88930 38126 ft 423 kts 357°
2026-04-16 12:15 43.80247 11.88705 38144 ft 423 kts 357°
2026-04-16 12:16 43.86116 11.88293 38149 ft 422 kts 357°
2026-04-16 12:16 43.91984 11.87904 38154 ft 422 kts 357°
2026-04-16 12:17 43.97850 11.87515 38155 ft 423 kts 357°
2026-04-16 12:17 44.03735 11.87159 38155 ft 424 kts 357°
2026-04-16 12:18 44.09647 11.86851 38152 ft 425 kts 357°
2026-04-16 12:18 44.15562 11.86555 38153 ft 426 kts 357°
2026-04-16 12:19 44.21484 11.86256 38157 ft 426 kts 357°
2026-04-16 12:19 44.27411 11.85956 38157 ft 426 kts 357°
2026-04-16 12:20 44.33345 11.85659 38166 ft 427 kts 357°
2026-04-16 12:20 44.39279 11.85356 38169 ft 427 kts 357°
2026-04-16 12:21 44.45229 11.85073 38160 ft 428 kts 357°
2026-04-16 12:21 44.51180 11.84792 38159 ft 429 kts 357°
2026-04-16 12:22 44.57148 11.84511 38161 ft 429 kts 357°
2026-04-16 12:22 44.63128 11.84254 38164 ft 430 kts 357°
2026-04-16 12:23 44.69117 11.84011 38159 ft 431 kts 357°
2026-04-16 12:23 44.75118 11.83768 38161 ft 432 kts 357°
2026-04-16 12:24 44.81128 11.83556 38163 ft 432 kts 357°
2026-04-16 12:24 44.87157 11.83423 38160 ft 433 kts 357°
2026-04-16 12:25 44.93185 11.83200 38168 ft 432 kts 350°
2026-04-16 12:25 44.98057 11.81744 38190 ft 430 kts 345°
2026-04-16 12:26 45.03894 11.79839 38183 ft 431 kts 345°
2026-04-16 12:26 45.09734 11.77925 38179 ft 430 kts 345°
2026-04-16 12:27 45.15565 11.76025 38175 ft 430 kts 345°
2026-04-16 12:27 45.21406 11.74114 38181 ft 431 kts 345°
2026-04-16 12:28 45.27252 11.72198 38182 ft 432 kts 345°
2026-04-16 12:28 45.33107 11.70278 38175 ft 432 kts 345°
2026-04-16 12:29 45.38959 11.68353 38185 ft 432 kts 345°
2026-04-16 12:29 45.44809 11.66423 38175 ft 432 kts 345°
2026-04-16 12:30 45.50619 11.64503 38172 ft 432 kts 345°
2026-04-16 12:30 45.56477 11.62563 38168 ft 432 kts 344°
2026-04-16 12:31 45.62326 11.60614 38181 ft 432 kts 344°
2026-04-16 12:31 45.68176 11.58670 38176 ft 431 kts 344°
2026-04-16 12:32 45.74020 11.56717 38171 ft 431 kts 344°
2026-04-16 12:32 45.79858 11.54762 38184 ft 431 kts 344°
2026-04-16 12:33 45.85701 11.52811 38169 ft 431 kts 344°
2026-04-16 12:33 45.91550 11.50844 38158 ft 431 kts 344°
2026-04-16 12:34 45.97391 11.48880 38161 ft 431 kts 344°
2026-04-16 12:34 46.03226 11.46917 38169 ft 431 kts 344°
2026-04-16 12:35 46.09063 11.44951 38158 ft 430 kts 344°
2026-04-16 12:35 46.14886 11.42978 38159 ft 430 kts 343°
2026-04-16 12:36 46.20712 11.40997 38151 ft 429 kts 344°
2026-04-16 12:36 46.26525 11.39021 38137 ft 430 kts 344°
2026-04-16 12:37 46.32343 11.37030 38130 ft 430 kts 344°
2026-04-16 12:37 46.38160 11.35043 38129 ft 430 kts 344°
2026-04-16 12:38 46.43985 11.33052 38124 ft 429 kts 343°
2026-04-16 12:38 46.49565 11.30193 38117 ft 424 kts 333°
2026-04-16 12:39 46.54955 11.26709 38122 ft 424 kts 333°
2026-04-16 12:39 46.60344 11.23230 38149 ft 424 kts 333°
2026-04-16 12:40 46.65738 11.19752 38161 ft 424 kts 333°
2026-04-16 12:40 46.71124 11.16263 38163 ft 423 kts 333°
2026-04-16 12:41 46.76507 11.12773 38174 ft 424 kts 333°
2026-04-16 12:41 46.81882 11.09269 38179 ft 423 kts 333°
2026-04-16 12:42 46.87251 11.05747 38205 ft 423 kts 333°
2026-04-16 12:42 46.92615 11.02176 38214 ft 423 kts 333°
2026-04-16 12:43 46.97952 10.98594 38230 ft 422 kts 333°
2026-04-16 12:43 47.03303 10.95089 38229 ft 421 kts 333°
2026-04-16 12:44 47.08616 10.91638 38242 ft 421 kts 334°
2026-04-16 12:44 47.13992 10.88132 38252 ft 420 kts 334°
2026-04-16 12:45 47.19330 10.84632 38238 ft 420 kts 333°
2026-04-16 12:45 47.24630 10.81142 38240 ft 420 kts 333°
2026-04-16 12:46 47.29957 10.77618 38264 ft 419 kts 333°
2026-04-16 12:46 47.35276 10.74094 38265 ft 419 kts 333°
2026-04-16 12:47 47.40597 10.70593 38269 ft 419 kts 335°
2026-04-16 12:47 47.46014 10.67396 38271 ft 419 kts 336°
2026-04-16 12:48 47.51466 10.64325 38269 ft 419 kts 336°
2026-04-16 12:48 47.56901 10.61201 38281 ft 419 kts 336°
2026-04-16 12:49 47.62306 10.58017 38278 ft 418 kts 336°
2026-04-16 12:49 47.67712 10.54826 38277 ft 418 kts 336°
2026-04-16 12:50 47.73115 10.51647 38287 ft 417 kts 336°
2026-04-16 12:50 47.78501 10.48470 38296 ft 416 kts 336°
2026-04-16 12:51 47.83868 10.45293 38290 ft 415 kts 336°
2026-04-16 12:51 47.89225 10.42116 38285 ft 414 kts 335°
2026-04-16 12:52 47.94570 10.38933 38279 ft 413 kts 335°
2026-04-16 12:52 47.99911 10.35753 38290 ft 413 kts 335°
2026-04-16 12:53 48.05240 10.32569 38283 ft 412 kts 335°
2026-04-16 12:53 48.10566 10.29373 38285 ft 412 kts 335°
2026-04-16 12:54 48.15883 10.26185 38286 ft 411 kts 335°
2026-04-16 12:54 48.21074 10.22676 38290 ft 407 kts 325°
2026-04-16 12:55 48.25526 10.17523 38285 ft 404 kts 319°
2026-04-16 12:55 48.29900 10.12212 38283 ft 404 kts 319°
2026-04-16 12:56 48.34277 10.06913 38273 ft 404 kts 319°
2026-04-16 12:56 48.38654 10.01601 38273 ft 404 kts 319°
2026-04-16 12:57 48.43015 9.96274 38271 ft 404 kts 319°
2026-04-16 12:57 48.47380 9.90936 38275 ft 404 kts 319°
2026-04-16 12:58 48.49568 9.88250 37895 ft 406 kts 319°
2026-04-16 12:58 48.51749 9.85572 37368 ft 404 kts 319°
2026-04-16 12:58 48.53927 9.82903 36870 ft 402 kts 319°
2026-04-16 12:58 48.56091 9.80246 36365 ft 401 kts 319°
2026-04-16 12:59 48.58248 9.77593 35884 ft 398 kts 319°
2026-04-16 12:59 48.60382 9.74960 35407 ft 395 kts 319°
2026-04-16 12:59 48.62479 9.72302 34939 ft 391 kts 317°
2026-04-16 13:00 48.66545 9.66945 33998 ft 384 kts 317°
2026-04-16 13:00 48.68537 9.64280 33481 ft 380 kts 317°
2026-04-16 13:00 48.70511 9.61642 32973 ft 377 kts 317°
2026-04-16 13:00 48.72446 9.59063 32469 ft 374 kts 316°
2026-04-16 13:01 48.74394 9.56475 31973 ft 371 kts 316°
2026-04-16 13:01 48.76328 9.53914 31492 ft 368 kts 316°
2026-04-16 13:01 48.78251 9.51370 31010 ft 366 kts 316°
2026-04-16 13:01 48.80162 9.48839 30549 ft 364 kts 316°
2026-04-16 13:02 48.82064 9.46313 30046 ft 362 kts 316°
2026-04-16 13:02 48.83947 9.43811 29502 ft 360 kts 316°
2026-04-16 13:02 48.85827 9.41316 28991 ft 357 kts 316°
2026-04-16 13:02 48.87689 9.38837 28466 ft 355 kts 316°
2026-04-16 13:03 48.89542 9.36370 27965 ft 353 kts 316°
2026-04-16 13:03 48.91460 9.34053 27463 ft 352 kts 324°
2026-04-16 13:03 48.93602 9.32266 26989 ft 352 kts 330°
2026-04-16 13:03 48.95791 9.30614 26511 ft 350 kts 330°
2026-04-16 13:04 48.97965 9.28970 26033 ft 348 kts 330°
2026-04-16 13:04 49.00121 9.27333 25553 ft 345 kts 330°
2026-04-16 13:04 49.02269 9.25702 25102 ft 344 kts 329°
2026-04-16 13:04 49.04402 9.24077 24651 ft 343 kts 329°
2026-04-16 13:05 49.06535 9.22449 24200 ft 342 kts 329°
2026-04-16 13:05 49.08655 9.20830 23760 ft 341 kts 329°
2026-04-16 13:05 49.10772 9.19213 23238 ft 340 kts 329°
2026-04-16 13:05 49.12884 9.17596 22722 ft 339 kts 329°
2026-04-16 13:06 49.14986 9.15980 22222 ft 338 kts 329°
2026-04-16 13:06 49.17102 9.14417 21735 ft 339 kts 334°
2026-04-16 13:06 49.19378 9.13430 21249 ft 344 kts 347°
2026-04-16 13:06 49.21778 9.13222 20768 ft 348 kts 359°
2026-04-16 13:07 49.24198 9.13560 20296 ft 349 kts
2026-04-16 13:07 49.26611 9.13911 19830 ft 348 kts
2026-04-16 13:07 49.29023 9.14258 19375 ft 347 kts
2026-04-16 13:07 49.31429 9.14601 18917 ft 347 kts
2026-04-16 13:08 49.33827 9.14942 18474 ft 346 kts
2026-04-16 13:08 49.36228 9.15278 17962 ft 346 kts
2026-04-16 13:08 49.38624 9.15611 17466 ft 346 kts
2026-04-16 13:08 49.41018 9.15947 16971 ft 345 kts
2026-04-16 13:09 49.43402 9.16284 16477 ft 343 kts
2026-04-16 13:09 49.45736 9.16621 15991 ft 331 kts
2026-04-16 13:09 49.47966 9.16951 15522 ft 321 kts
2026-04-16 13:09 49.50195 9.17280 15050 ft 315 kts
2026-04-16 13:10 49.52370 9.17598 14587 ft 313 kts
2026-04-16 13:10 49.54493 9.17865 14272 ft 308 kts 356°
2026-04-16 13:10 49.56574 9.17332 14211 ft 302 kts 336°
2026-04-16 13:10 49.58509 9.16060 14219 ft 302 kts 333°
2026-04-16 13:11 49.60432 9.14749 14222 ft 304 kts 333°
2026-04-16 13:11 49.62359 9.13430 14140 ft 303 kts 333°
2026-04-16 13:11 49.64283 9.12114 13741 ft 303 kts 333°
2026-04-16 13:11 49.66203 9.10800 13343 ft 302 kts 333°
2026-04-16 13:12 49.67500 9.09912 13074 ft 301 kts 333°
2026-04-16 13:12 49.69396 9.08614 12678 ft 295 kts 334°
2026-04-16 13:12 49.71262 9.07333 12289 ft 292 kts 334°
2026-04-16 13:12 49.73113 9.06054 11905 ft 291 kts 334°
2026-04-16 13:13 49.74955 9.04776 11529 ft 290 kts 333°
2026-04-16 13:13 49.76764 9.03518 11153 ft 289 kts 333°
2026-04-16 13:13 49.78622 9.02229 10766 ft 288 kts 333°
2026-04-16 13:13 49.80422 9.00982 10410 ft 287 kts 334°
2026-04-16 13:14 49.82243 8.99723 10165 ft 286 kts 334°
2026-04-16 13:14 49.84052 8.98471 9792 ft 283 kts 334°
2026-04-16 13:14 49.85847 8.97226 9422 ft 282 kts 334°
2026-04-16 13:14 49.87633 8.95987 9056 ft 281 kts 334°
2026-04-16 13:15 49.89416 8.94748 8659 ft 280 kts 334°
2026-04-16 13:15 49.91184 8.93518 8218 ft 278 kts 334°
2026-04-16 13:15 49.92950 8.92320 7792 ft 276 kts 338°
2026-04-16 13:15 49.94801 8.91543 7367 ft 276 kts 349°
2026-04-16 13:16 49.96711 8.91319 6948 ft 276 kts 359°
2026-04-16 13:16 49.98628 8.91672 6520 ft 279 kts 11°
2026-04-16 13:16 50.00439 8.92661 6086 ft 272 kts 25°
2026-04-16 13:16 50.02013 8.94187 5654 ft 263 kts 37°
2026-04-16 13:17 50.03303 8.96131 5225 ft 255 kts 50°
2026-04-16 13:17 50.04306 8.98360 4796 ft 248 kts 57°
2026-04-16 13:17 50.05054 9.00746 4352 ft 243 kts 68°
2026-04-16 13:17 50.05661 9.03183 4021 ft 238 kts 69°
2026-04-16 13:18 50.06252 9.05594 4012 ft 239 kts 69°
2026-04-16 13:18 50.06847 9.08019 4013 ft 240 kts 69°
2026-04-16 13:18 50.07438 9.10452 4006 ft 240 kts 69°
2026-04-16 13:18 50.08026 9.12886 4008 ft 240 kts 69°
2026-04-16 13:19 50.08614 9.15315 4009 ft 240 kts 69°
2026-04-16 13:19 50.09206 9.17750 4011 ft 241 kts 69°
2026-04-16 13:19 50.09794 9.20189 4002 ft 240 kts 69°
2026-04-16 13:19 50.10380 9.22625 4009 ft 240 kts 69°
2026-04-16 13:20 50.11217 9.24842 4007 ft 239 kts 42°
2026-04-16 13:20 50.12641 9.26064 4008 ft 234 kts
2026-04-16 13:20 50.14219 9.25913 4006 ft 223 kts 336°
2026-04-16 13:20 50.15374 9.24534 4008 ft 206 kts 303°
2026-04-16 13:21 50.16084 9.22599 4049 ft 206 kts 295°
2026-04-16 13:21 50.16712 9.20593 4015 ft 205 kts 294°
2026-04-16 13:21 50.17319 9.18584 4008 ft 204 kts 289°
2026-04-16 13:21 50.17539 9.16415 4005 ft 204 kts 271°
2026-04-16 13:22 50.17556 9.14195 4005 ft 204 kts 269°
2026-04-16 13:22 50.17306 9.12042 4003 ft 204 kts 240°
2026-04-16 13:22 50.16333 9.10426 4001 ft 206 kts 224°
2026-04-16 13:22 50.15622 9.08533 4005 ft 205 kts 256°
2026-04-16 13:23 50.15250 9.06389 4002 ft 205 kts 251°
2026-04-16 13:23 50.14765 9.04299 4012 ft 205 kts 250°
2026-04-16 13:23 50.14274 9.02213 4004 ft 205 kts 250°
2026-04-16 13:23 50.13786 9.00128 4010 ft 204 kts 250°
2026-04-16 13:24 50.13300 8.98053 4009 ft 204 kts 250°
2026-04-16 13:24 50.12813 8.95971 4011 ft 205 kts 250°
2026-04-16 13:24 50.12324 8.93883 4012 ft 205 kts 250°
2026-04-16 13:24 50.11836 8.91799 4013 ft 205 kts 250°
2026-04-16 13:25 50.11346 8.89712 4013 ft 205 kts 250°
2026-04-16 13:25 50.10856 8.87627 4006 ft 206 kts 250°
2026-04-16 13:25 50.10370 8.85557 3907 ft 206 kts 250°
2026-04-16 13:25 50.09874 8.83451 3673 ft 204 kts 250°
2026-04-16 13:26 50.09390 8.81397 3422 ft 204 kts 250°
2026-04-16 13:26 50.08903 8.79328 3143 ft 203 kts 250°
2026-04-16 13:26 50.08418 8.77274 2873 ft 201 kts 250°
2026-04-16 13:26 50.07943 8.75265 2604 ft 193 kts 250°
2026-04-16 13:27 50.07494 8.73366 2357 ft 179 kts 250°
2026-04-16 13:27 50.07091 8.71663 2143 ft 157 kts 250°
2026-04-16 13:27 50.06730 8.70136 1942 ft 146 kts 250°
2026-04-16 13:27 50.06383 8.68663 1719 ft 142 kts 250°
2026-04-16 13:28 50.06041 8.67211 1536 ft 144 kts 249°
2026-04-16 13:28 50.05697 8.65776 1364 ft 143 kts 249°
2026-04-16 13:28 50.05351 8.64304 1186 ft 143 kts 250°
2026-04-16 13:28 50.05013 8.62886 984 ft 140 kts 249°
2026-04-16 13:29 50.04673 8.61452 768 ft 140 kts 250°
2026-04-16 13:29 50.04340 8.60042 600 ft 140 kts 249°
2026-04-16 13:29 50.04004 8.58635 416 ft 139 kts 248°
2026-04-16 13:29 50.03691 8.57353 359 ft 109 kts 251°
2026-04-16 13:30 50.03525 8.56641 353 ft 51 kts 250°
2026-04-16 13:30 50.03432 8.56184 357 ft 37 kts 268°
2026-04-16 13:30 50.03459 8.55865 345 ft 19 kts 284°
2026-04-16 13:30 50.03505 8.55707 350 ft 16 kts 335°
2026-04-16 13:31 50.03568 8.55791 356 ft 11 kts 70°
2026-04-16 13:31 50.03591 8.55893 352 ft 9 kts 70°
2026-04-16 13:31 50.03610 8.55967 357 ft 6 kts 68°
2026-04-16 13:31 50.03625 8.56026 355 ft 7 kts 69°
2026-04-16 13:32 50.03648 8.56122 357 ft 12 kts 70°
2026-04-16 13:32 50.03684 8.56278 358 ft 19 kts 71°
2026-04-16 13:32 50.03737 8.56499 358 ft 24 kts 67°
2026-04-16 13:32 50.03796 8.56749 357 ft 25 kts 69°
2026-04-16 13:33 50.03859 8.57007 359 ft 26 kts 71°
2026-04-16 13:33 50.03911 8.57235 364 ft 19 kts 69°
2026-04-16 13:33 50.03955 8.57409 369 ft 15 kts 69°
2026-04-16 13:33 50.03987 8.57552 366 ft 13 kts 70°
2026-04-16 13:34 50.04016 8.57671 367 ft 11 kts 69°
2026-04-16 13:34 50.04041 8.57772 369 ft 11 kts 69°
2026-04-16 13:34 50.04088 8.57964 369 ft 17 kts 69°
2026-04-16 13:34 50.04129 8.58111 369 ft 13 kts 54°
2026-04-16 13:35 50.04202 8.58184 369 ft 12 kts 27°
2026-04-16 13:35 50.04280 8.58204 366 ft 11 kts 353°
2026-04-16 13:35 50.04365 8.58156 370 ft 13 kts 338°
2026-04-16 13:35 50.04444 8.58112 366 ft 13 kts 340°
2026-04-16 13:36 50.04550 8.58051 365 ft 18 kts 339°
2026-04-16 13:36 50.04674 8.57980 361 ft 18 kts 341°
2026-04-16 13:36 50.04768 8.58004 361 ft 14 kts 64°
2026-04-16 13:36 50.04800 8.58135 359 ft 12 kts 69°
2026-04-16 13:37 50.04834 8.58273 363 ft 13 kts 69°
2026-04-16 13:37 50.04868 8.58416 362 ft 14 kts 70°
2026-04-16 13:37 50.04902 8.58564 360 ft 16 kts 70°
2026-04-16 13:37 50.04937 8.58708 361 ft 10 kts 69°
2026-04-16 13:38 50.04943 8.58770 363 ft 4 kts 118°
2026-04-16 13:38 50.04927 8.58781 361 ft 2 kts 163°
2026-04-16 13:38 50.04911 8.58790 362 ft 3 kts 161°
2026-04-16 13:38 50.04904 8.58794 362 ft 1 kts 160°
2026-04-16 13:39 50.04901 8.58796 366 ft 0 kts 160°